Location: Mountain Lakes
(44.1215°N, 71.9554°W)
Time: 17:29:50
(UTC+00:00)

Landsat 7 - Pass Details

Date: 08 September 2024
Orbit: 689 x 691 km, 97.9° (Epoch: 12 October)

Event Time Altitude Azimuth Distance (km) Brightness Sun altitude
Rises 23:37:26 0° 175° (S) 3,051 6.9 -5.6°
Reaches altitude 10° 23:39:42 10° 179° (S) 2,139 6.2 -6.0°
Maximum altitude 23:44:20 60° 260° (W) 792 4.5 -6.9°
Drops below altitude 10° 23:49:00 10° 340° (NNW) 2,154 6.9 -7.7°
Sets 23:51:17 0° 344° (NNW) 3,075 7.6 -8.1°
